Regional Weather Roundup
Issued by NWS

Home | Current Version | Previous Version | Text Only | Print | Product List | Glossary Off
Versions: 1 2 3 4 5 6 7 8 9 10 11 12 13 14 15 16 17 18 19 20 21 22 23 24 25 26 27 28 29 30 31 32 33 34 35 36 37 38 39 40 41 42 43 44 45 46 47 48 49 50

000
ASUS43 KLMK 250102
RWRKY
KENTUCKY REGIONAL WEATHER ROUNDUP
NATIONAL WEATHER SERVICE LOUISVILLE KY
900 PM EDT SUN MAY 24 2015

NOTE "FAIR" INDICATES FEW OR NO CLOUDS BELOW 12,000 FEET
WITH NO SIGNIFICANT WEATHER AND/OR OBSTRUCTIONS TO VISIBILITY.

KYZ001>023-026-027-061>063-070>075-250200-
WESTERN AND SOUTH CENTRAL KENTUCKY

CITY           SKY/WX    TMP DP  RH WIND       PRES   REMARKS
PADUCAH        PTCLDY    79  66  64 S14G22    29.98S
HENDERSON      CLOUDY    72  64  78 S9        30.02S
OWENSBORO      MOCLDY    80  65  60 SE12      30.04S
HOPKINSVILLE   MOCLDY    80  66  62 SE10      30.05R
BOWLING GREEN  PTCLDY    78  61  55 SE9       30.10R
GLASGOW        NOT AVBL
$$

KYZ024-025-028>034-038-045-046-053-250200-
NORTH CENTRAL KENTUCKY

CITY           SKY/WX    TMP DP  RH WIND       PRES   REMARKS
LOUISVILLE/SDF MOCLDY    80  58  46 SE10      30.09R
LOUISVILLE/LOU CLEAR     81  56  42 SE7       30.10S
FORT KNOX      PTCLDY    77  60  57 SE7       30.09R
$$

KYZ035>037-039>044-047>052-055>060-089>105-250200-
NORTHEAST KENTUCKY

CITY           SKY/WX    TMP DP  RH WIND       PRES   REMARKS
LEXINGTON      CLEAR     75  53  46 SE7       30.15S
COVINGTON      PTCLDY    73  54  51 S8        30.13R
FRANKFORT      CLEAR     76  53  44 S7        30.13R
$$

KYZ054-064>069-076>088-106>120-250200-
SOUTHEAST KENTUCKY

CITY           SKY/WX    TMP DP  RH WIND       PRES   REMARKS
JACKSON        CLEAR     75  48  38 CALM      30.19F
LONDON         CLEAR     76  47  35 S3        30.19S
SOMERSET       NOT AVBL
MIDDLESBORO    NOT AVBL
MONTICELLO     CLEAR     74  58  57 SE6       30.20S
$$




USA.gov is the U.S. government's official web portal to all federal, state and local government web resources and services.